Location: Canyon Mountain
(41.1596°N, 123.1734°W)
Time: 05:05:18
(UTC+00:00)

Daily predictions for brighter satellites

Satellite Brightness Start Highest point End
(mag) Time Altitude Azimuth Time Altitude Azimuth Time Altitude Azimuth
Cosmos 676 Rocket 4.2 04:12:46 10° S 04:17:55 52° ESE 04:23:04 10° NNE
PSLV R/B 3.5 04:16:40 10° SSE 04:20:12 81° E 04:23:43 10° N
Cosmos 1190 Rocket 4.1 04:15:45 10° SSW 04:21:02 87° WNW 04:26:23 10° NNE
RESURS DK-1 4.4 04:18:39 10° NNE 04:21:14 16° NE 04:23:49 10° E
BREEZE-M DEB (TANK) 4.4 04:21:36 10° WNW 04:25:28 61° NNE 04:36:46 10° E
SL-16 R/B 3.2 04:20:34 10° N 04:25:42 33° ENE 04:30:47 10° ESE
Cosmos 2082 Rocket 3.1 04:20:52 10° SW 04:26:26 55° WNW 04:32:03 10° NNE
Cosmos 1674 2.5 04:24:53 10° S 04:28:20 80° W 04:31:48 10° N
Cosmos 2333 Rocket 4.0 04:25:54 10° N 04:29:51 18° NE 04:33:46 10° E
Cosmos 2369 4.0 04:25:06 10° NNW 04:30:49 73° WSW 04:36:31 10° SSE
CZ-4C R/B 3.8 04:27:20 10° NNE 04:31:20 46° E 04:35:16 10° S
ERS-1 Rocket 4.0 04:29:53 10° SE 04:34:15 31° ENE 04:38:37 10° N
Cosmos 841 Rocket 4.4 04:33:21 10° N 04:38:09 34° ENE 04:42:37 11° SE
Cosmos 1763 Rocket 3.7 04:33:45 10° NNW 04:38:58 75° WSW 04:44:06 10° S
Terra 3.0 04:35:25 10° SE 04:39:22 27° ENE 04:43:19 10° N
Atlas Centaur 2 3.6 04:32:52 10° WSW 04:40:01 38° S 04:47:22 11° ESE
Cosmos 1766 4.3 04:38:17 10° NNW 04:41:52 42° W 04:45:24 10° SSW
MetOp-B 4.3 04:37:06 10° SSE 04:42:19 58° ENE 04:47:35 10° N
Cosmos 1441 Rocket 3.0 04:48:53 10° N 04:52:30 68° E 04:55:40 13° SSE
Cosmos 1400 Rocket 3.1 04:50:22 10° SSE 04:54:04 44° E 04:57:45 10° NNE
USA 234 3.2 04:48:08 10° NE 04:54:40 68° SE 05:01:09 10° SW
Cosmos 1908 3.0 04:53:19 10° N 04:56:56 82° E 05:00:08 13° S
ATLAS CENTAUR R/B 1.1 04:55:39 10° SSW 04:58:58 47° ESE 05:02:24 10° NE
ARGOS Delta rocket 3.6 04:55:11 11° SSE 04:59:29 79° ENE 05:03:52 10° N
Cosmos 1356 Rocket 4.4 04:58:19 16° SE 05:00:55 30° E 05:04:35 10° NNE
IRS-1A Rocket 4.3 04:57:25 12° SSE 05:02:26 71° ENE 05:07:56 10° N
Cosmos 1417 Rocket 4.5 04:56:18 10° N 05:02:29 71° E 05:08:07 12° SSE
Okean-O 3.1 04:58:31 10° S 05:02:52 60° W 05:07:14 10° NNW
Cosmos 1980 Rocket 3.9 05:00:42 10° NW 05:05:25 28° WSW 05:10:06 10° SSW
Cosmos 2322 Rocket 2.8 05:02:31 10° NNW 05:07:58 45° ENE 05:11:59 18° SE
Meteor 2-10 Rocket 4.0 05:04:17 10° N 05:09:40 49° ENE 05:13:20 19° SE
Meteor 1-22 Rocket 4.3 05:05:51 10° N 05:11:33 69° E 05:16:16 16° SSE
USA 245 3.4 05:09:33 21° SSE 05:11:43 60° ENE 05:15:57 10° N
Cosmos 468 Rocket 4.5 05:06:50 10° NNW 05:11:56 57° WSW 05:16:39 12° S
Ariane Rocket 3.4 05:09:34 18° SE 05:13:07 49° ENE 05:18:02 10° N
Cosmos 1470 4.0 05:11:25 10° NNW 05:14:50 36° W 05:18:14 10° SSW
SL-08 ROCKET BODY 4.4 05:10:00 10° S 05:16:07 77° E 05:22:11 10° N
Cosmos 2228 Rocket 3.3 05:16:46 18° SSE 05:19:57 52° E 05:24:25 10° NNE
Cosmos 1869 Rocket 3.7 05:15:50 10° N 05:20:17 78° W 05:23:47 16° S
BlueWalker 3 3.7 05:22:31 16° E 05:22:31 16° E 05:23:45 10° ENE
Landsat 4 4.0 05:19:35 26° SE 05:21:05 42° ENE 05:24:21 10° N
Cosmos 2278 3.9 05:15:30 10° NNW 05:21:12 71° WSW 05:25:34 17° S
Okean O Rocket 3.9 05:18:19 10° SW 05:21:32 20° W 05:24:47 10° NW
Cosmos 1850 Rocket 3.9 05:22:31 10° SSW 05:27:45 84° ESE 05:32:59 10° NNE
Tiangong -0.3 05:26:34 10° WSW 05:28:53 19° SSW 05:29:15 18° SSW
MOS 1 Rocket 3.6 05:26:15 21° SSE 05:29:54 72° ENE 05:35:11 10° N
Cosmos 2219 Rocket 3.5 05:27:02 10° N 05:31:58 29° NE 05:35:22 17° ESE
Meteor 1-21 4.4 05:28:09 18° S 05:32:26 60° E 05:38:10 10° NNE
ATLAS 2AS CENTAUR R/B 3.0 05:30:12 10° NNW 05:36:54 56° NE 05:41:14 22° ESE
SL-14 R/B 3.1 05:35:08 22° S 05:37:30 89° W 05:41:19 10° N
Cosmos 968 Rocket 3.4 05:35:06 13° S 05:39:41 74° ESE 05:44:52 10° NNE
S3M 4.2 05:33:43 10° NNW 05:40:04 71° W 05:45:09 16° S
SeaSat 1 2.4 05:37:33 25° SSE 05:40:25 80° WSW 05:45:21 10° NNW
Cosmos 1455 3.9 05:41:04 10° NNE 05:43:22 16° ENE 05:43:39 16° E
Landsat 5 3.7 05:39:48 10° NNE 05:43:45 50° E 05:45:11 34° SSE
SPOT 5 4.1 05:40:31 11° SSW 05:44:09 31° W 05:48:04 10° NNW
SPOT 3 Rocket 3.5 05:41:18 25° SSE 05:44:20 87° ENE 05:49:32 10° NNW
Cosmos 1346 Rocket 2.7 05:40:56 10° N 05:44:47 70° E 05:46:06 38° SSE
Okean 3 3.4 05:46:51 35° SSE 05:48:25 61° E 05:52:31 10° NNE
Cosmos 1741 Rocket 4.3 05:43:15 10° SSW 05:48:29 68° WNW 05:53:47 10° NNE
Cosmos 1862 Rocket 3.5 05:47:52 27° S 05:50:12 82° E 05:54:39 10° N
Cosmos 1655 Rocket 4.2 05:47:40 11° SSW 05:53:48 73° W 06:00:13 10° N
Cosmos 1814 Rocket 4.3 05:50:36 10° NNW 05:55:50 56° ENE 05:58:07 32° SE
Cosmos 2360 Rocket 2.1 05:51:50 10° NNW 05:57:32 86° ENE 06:00:15 32° SSE
RESURS DK-1 2.9 05:55:18 10° NW 05:59:13 47° WSW 06:00:39 32° SSW
SL-27 R/B 3.8 06:02:32 17° WSW 06:04:04 28° WNW 06:06:32 10° N
SJ 16-02 1.3 06:03:48 27° SSW 06:06:08 81° WNW 06:10:28 10° NNE
Cosmos 1758 4.1 06:03:40 10° NNW 06:07:25 44° W 06:09:00 28° SSW
Cosmos 1244 Rocket 4.5 06:05:47 30° S 06:09:02 70° E 06:15:19 10° NNE
SL-16 R/B 3.3 06:04:38 10° NW 06:09:45 36° WSW 06:12:57 20° SSW
Cosmos 1707 Rocket 4.4 06:07:36 18° SSW 06:10:39 48° W 06:14:58 10° N
COSMOS 2455 3.8 06:10:52 27° ESE 06:11:15 27° ESE 06:16:13 10° NE
ERS-1 Rocket 4.4 06:09:32 15° SSW 06:12:55 31° W 06:17:21 10° NW
Iridium 51 4.4 06:13:10 44° S 06:14:33 89° E 06:18:51 10° N
Cosmos 2333 Rocket 2.3 06:09:00 10° NNW 06:14:46 76° WSW 06:17:10 36° S
Terra 3.2 06:14:06 18° SSW 06:16:50 31° W 06:21:00 10° NW
CZ-2C R/B 4.1 06:15:39 10° NNE 06:19:52 42° E 06:20:09 41° ESE
Cosmos 1300 4.1 06:17:13 10° NNW 06:20:19 29° W 06:21:24 24° WSW
SL-4 R/B 4.4 06:17:40 10° NW 06:20:43 21° NNE 06:23:55 10° ENE
Meteor 1-4 Rocket 3.0 06:24:56 42° W 06:25:01 42° WNW 06:27:53 10° N
Cosmos 839 Rocket 4.0 06:18:31 10° NNW 06:25:16 80° ENE 06:27:50 38° SE
Aureole 3 4.4 06:26:33 27° SW 06:28:17 45° WNW 06:32:50 10° N
Atlas Centaur 2 3.9 06:21:53 10° WSW 06:28:35 28° SSW 06:29:35 27° S
ARIANE 5 R/B 3.1 06:30:35 40° E 06:31:12 43° ENE 06:35:19 10° N
Cosmos 2237 Rocket 4.2 06:28:55 10° N 06:32:45 18° NE 06:36:08 11° E
Cosmos 1733 Rocket 4.4 06:29:26 10° NNW 06:33:25 33° W 06:35:06 25° SW
DNEPR-1 R/B 4.2 06:27:32 10° NNW 06:34:01 83° ENE 06:35:43 46° SE
Okean 1-7 3.2 06:32:51 44° SW 06:34:03 66° W 06:38:22 10° N
Cosmos 1242 Rocket 3.7 06:36:24 29° NNE 06:36:24 29° NNE 06:37:54 10° NNE
SL-08 R/B 4.4 06:33:04 37° S 06:35:43 88° E 06:41:50 10° N
Cosmos 2227 Rocket 4.3 06:37:23 11° E 06:37:23 11° E 06:38:32 10° ENE
ATLAS CENTAUR R/B 4.1 06:34:50 10° W 06:36:53 15° NW 06:38:59 10° N
Cosmos 2322 4.1 06:31:43 10° NNW 06:37:18 54° ENE 06:39:08 38° ESE
USA 234 4.5 06:31:22 10° NE 06:37:25 42° NNW 06:43:28 10° W
Okean 2 3.9 06:41:57 42° WSW 06:42:47 51° W 06:46:44 10° N
CZ-4C R/B 2.6 06:43:37 34° E 06:43:37 34° E 06:47:29 10° NE
Cosmos 1908 Rocket 3.4 06:44:11 10° N 06:48:31 76° W 06:48:57 68° SSW
GP-B 2.9 06:45:35 10° N 06:50:00 85° E 06:50:24 73° SSE
Cosmos 1315 Rocket 3.9 06:48:58 32° WSW 06:50:01 38° WNW 06:53:47 10° N
Cosmos 1486 Rocket 4.2 06:50:06 48° ESE 06:50:25 49° ESE 06:55:25 10° NNE
Cosmos 1782 Rocket 3.7 06:47:12 10° N 06:51:28 57° E 06:51:36 57° E
Cosmos 1953 2.5 06:47:44 10° NNW 06:51:30 55° W 06:51:31 55° W
Cosmos 2322 Rocket 3.7 06:47:06 10° NW 06:51:42 26° WSW 06:53:48 21° SW
Cosmos 2297 Rocket 2.9 06:56:04 35° ESE 06:56:06 35° ESE 07:01:12 10° NE
Spot 4 4.5 06:56:33 39° E 06:57:18 42° ENE 07:01:49 10° N
BlueWalker 3 2.8 06:56:37 22° W 06:58:44 48° NNW 07:02:22 10° NE
PSLV R/B 3.8 06:57:44 10° NNE 07:01:35 82° NNE 07:01:35 82° NNE
H-2A R/B 4.4 07:02:22 10° ENE 07:03:04 11° ENE 07:03:04 11° ENE
Cosmos 1408 4.1 07:07:15 27° NNE 07:07:15 27° NNE 07:08:46 10° NNE
Cosmos 1300 Rocket 3.5 07:03:46 10° N 07:08:01 72° ENE 07:08:01 72° ENE
Cosmos 304 Rocket 3.9 07:15:01 56° E 07:15:01 56° E 07:19:27 10° NNE
Cosmos 2219 Rocket 2.8 07:10:43 10° NW 07:16:01 42° WSW 07:17:04 38° SW
BREEZE-M DEB (TANK) 4.2 07:14:03 10° WNW 07:15:07 25° W 07:15:07 25° W
Cosmos 1455 3.8 07:14:49 10° NNW 07:17:23 25° W 07:17:23 25° W
Meteor 2-5 Rocket 4.0 07:18:28 51° SE 07:19:23 57° E 07:25:06 10° NNE
COSMOS 2428 2.6 07:14:01 10° NNW 07:19:45 86° WSW 07:20:46 62° SSE
Cosmos 1745 Rocket 4.2 07:18:07 42° SSW 07:20:21 69° W 07:26:43 10° N
ALOS 2 3.0 07:21:24 50° ENE 07:21:28 50° ENE 07:25:43 10° N
Cosmos 1570 Rocket 4.2 07:21:08 10° NNW 07:26:22 56° WSW 07:26:59 53° SW
Cosmos 1703 3.9 07:27:27 47° NNE 07:27:27 47° NNE 07:30:11 10° N
ATLAS 2AS CENTAUR R/B 3.7 07:21:47 10° NW 07:27:22 28° WSW 07:28:39 27° SW
Cosmos 158 Rocket 3.8 07:23:05 10° NNW 07:28:23 78° WSW 07:28:50 71° SSW
Cosmos 2263 Rocket 4.4 07:28:45 11° E 07:28:45 11° E 07:30:03 10° ENE
USA 281 3.3 07:28:43 48° SSW 07:30:25 64° WSW 07:36:58 10° NNW
Nadezhda 1 Rocket 4.3 07:25:47 10° NNW 07:31:54 56° W 07:33:33 43° SW
H-2A R/B 2.7 07:34:34 66° WNW 07:34:34 66° WNW 07:38:34 10° NNW
Spot 2 4.3 07:39:08 72° SE 07:39:34 80° ENE 07:44:39 10° N
Cosmos 2360 Rocket 4.4 07:38:30 10° WNW 07:40:39 12° W 07:42:00 11° WSW
Cosmos 2181 Rocket 4.2 07:36:08 10° N 07:42:12 57° E 07:43:33 47° ESE
Cosmos 2242 Rocket 4.2 07:46:48 46° W 07:47:04 47° WNW 07:51:30 10° N
Cosmos 2074 Rocket 4.4 07:48:37 43° ESE 07:49:43 47° E 07:55:37 10° NNE
Sich 1 Rocket 4.3 07:46:22 10° N 07:50:23 44° ENE 07:50:23 44° ENE
Cosmos 1825 3.9 07:52:12 24° NE 07:52:12 24° NE 07:53:57 10° NNE
Cosmos 773 Rocket 3.8 07:46:49 10° NNW 07:51:59 90° W 07:52:17 80° SSE
COSMOS 2455 3.5 07:53:57 28° WSW 07:56:51 49° NW 08:02:43 10° NNE
SL-4 R/B 2.5 07:56:05 10° NW 08:00:05 57° NNE 08:00:05 57° NNE
Cosmos 1777 Rocket 4.1 08:04:24 61° WSW 08:05:05 69° WNW 08:10:23 10° NNE
Cosmos 1503 Rocket 4.4 08:04:47 48° WSW 08:05:47 56° WNW 08:11:02 10° NNE
Cosmos 371 Rocket 4.4 08:06:58 32° W 08:08:01 36° WNW 08:12:28 10° N
NOSS 0 Rocket 4.1 08:02:41 10° NNW 08:08:45 55° WSW 08:09:30 52° SW
SL-12 R/B(2) 4.3 08:07:12 47° S 08:09:32 64° ESE 08:18:41 10° NE
SL-16 R/B 3.6 08:05:49 10° N 08:10:52 31° ENE 08:13:49 20° ESE
Cosmos 2237 Rocket 2.0 08:11:46 10° NNW 08:17:26 75° WSW 08:17:55 70° SSW
Cosmos 2227 Rocket 2.0 08:19:09 69° SSW 08:19:53 90° WNW 08:25:35 10° NNE
CENTAUR R/B 2.1 08:20:13 67° S 08:20:52 74° ESE 08:27:32 10° NE
Cosmos 1295 Rocket 4.4 08:20:20 59° SSE 08:21:24 74° E 08:27:31 10° N
Okean 1 Rocket 3.3 08:17:29 10° N 08:21:32 61° ENE 08:21:32 61° ENE
GEOS 3 Rocket 3.5 08:16:56 10° NE 08:22:04 67° SE 08:22:06 67° SE
Nadezhda 3 Rocket 4.2 08:22:47 10° N 08:28:59 61° E 08:30:36 46° SE
Meteor 2-11 Rocket 4.5 08:28:07 55° SE 08:29:14 65° E 08:35:15 10° NNE
PSLV R/B 4.2 08:25:33 10° N 08:29:24 45° WNW 08:29:24 45° WNW
Cosmos 1980 3.9 08:25:10 10° NNW 08:30:41 54° WSW 08:30:53 54° WSW
CZ-4C R/B 3.6 08:28:39 18° W 08:31:16 28° NW 08:36:04 10° NNE
Cosmos 2184 Rocket 4.0 08:34:00 57° SSW 08:35:23 79° W 08:41:48 10° N
Cosmos 405 Rocket 4.5 08:35:33 10° NNW 08:37:41 24° WNW 08:37:41 24° WNW
Cosmos 2297 Rocket 3.5 08:37:49 25° W 08:40:06 33° WNW 08:45:12 10° N
H-2A R/B 2.5 08:35:59 10° N 08:39:52 53° WNW 08:39:52 53° WNW
Aureole 1 Rocket 3.7 08:43:40 41° ENE 08:43:40 41° ENE 08:46:46 10° NNE
Cosmos 1975 Rocket 4.0 08:43:04 38° E 08:43:04 38° E 08:47:00 10° NNE
Cosmos 2219 3.0 08:43:27 68° S 08:44:07 78° ESE 08:49:45 10° NNE
Meteor 1-21 Rocket 4.3 08:44:03 59° SSE 08:45:00 70° E 08:50:40 10° NNE
Cosmos 1898 Rocket 3.9 08:45:27 46° ESE 08:45:43 47° ESE 08:50:40 10° NNE
Cosmos 967 Rocket 4.4 08:46:20 57° S 08:47:43 79° ESE 08:54:13 10° NNE
Cosmos 292 Rocket 3.7 08:52:01 71° ESE 08:52:02 71° ESE 08:56:50 10° NNE
Cosmos 2154 Rocket 4.0 08:51:07 54° SW 08:52:31 72° W 08:58:48 10° N
Cosmos 2327 Rocket 4.4 08:54:18 55° SSE 08:55:40 75° E 09:01:45 10° N
Cosmos 1455 Rocket 3.2 08:53:31 10° N 08:57:57 64° E 08:58:04 64° E
Helios 1A Rocket 4.0 08:58:50 34° E 08:59:04 34° ENE 09:02:32 10° N
BREEZE-M DEB (TANK) 3.4 08:54:21 10° WNW 08:59:55 42° NNE 09:00:46 33° ENE
Resurs 1-4 Rocket 4.1 08:57:58 10° NE 09:01:23 17° E 09:03:13 15° ESE
Okean 2 Rocket 4.5 08:58:24 10° NNW 09:01:47 28° WNW 09:01:47 28° WNW
Cosmos 1461 3.7 09:04:08 41° ENE 09:04:08 41° ENE 09:07:04 10° NE
Cosmos 1025 Rocket 3.4 09:06:29 53° WNW 09:06:29 53° WNW 09:10:33 10° N
SL-8 Rocket 4.3 09:06:26 40° SE 09:08:18 55° E 09:14:20 10° NNE
NOSS 3-2 (A) 3.1 09:09:04 57° WSW 09:10:07 76° NW 09:16:06 10° NNE
Cosmos 2263 Rocket 2.0 09:10:25 62° SSW 09:11:24 89° WNW 09:17:01 10° NNE
NOSS 3-2 (C) 3.3 09:16:18 50° SE 09:16:56 53° ESE 09:22:37 10° NE
Cosmos 962 Rocket 4.5 09:15:53 50° S 09:17:42 88° E 09:24:04 10° N
Cosmos 1680 Rocket 4.5 09:15:26 10° N 09:20:23 42° ENE 09:23:20 22° SE
Cosmos 1869 3.9 09:20:40 10° N 09:24:14 44° E 09:24:17 44° E
Cosmos 1818 4.2 09:22:26 10° NNW 09:27:50 56° NE 09:32:05 16° SE
Cosmos 1844 Rocket 4.1 09:29:05 21° SE 09:30:56 25° ESE 09:35:26 10° NE
COBE Rocket 4.1 09:31:47 10° NNE 09:36:56 69° E 09:38:16 48° SSE
Cosmos 2341 Rocket 3.9 09:41:06 45° SSW 09:43:06 74° W 09:49:21 10° N
BREEZE-M DEB (TANK) 3.8 09:45:16 21° E 09:45:16 21° E 09:46:54 10° ESE
IDEFIX/ARIANE 42P 2.8 09:42:30 10° NNE 09:47:42 61° E 09:49:25 40° SSE
Cosmos 864 Rocket 4.5 09:46:59 42° SSW 09:49:19 82° W 09:55:42 10° N
Cosmos 1900 4.3 09:49:55 53° SSW 09:51:10 86° ESE 09:56:17 10° NNE
SL-16 R/B 2.7 09:49:46 10° NW 09:55:01 39° WSW 09:55:38 38° WSW
Cosmos 1606 2.7 09:53:56 10° NNW 09:57:09 58° WNW 09:57:09 58° WNW
MOZ.5/SAFIR/RUBIN 5/SL-8 3.6 09:56:28 52° S 09:57:33 76° WSW 10:02:11 10° NNW
CZ-2C R/B 3.9 09:52:36 10° NNE 09:57:41 44° E 10:00:02 27° SSE
Iridium 921 4.3 10:00:37 83° NW 10:00:37 83° NW 10:03:59 10° N
CZ-2C R/B 3.0 09:59:28 22° SSE 10:02:52 63° ENE 10:08:12 10° N
Cosmos 2227 Rocket 4.4 10:01:27 10° W 10:04:44 15° NW 10:08:02 10° NNW
Cosmos 2228 2.9 10:01:11 10° N 10:05:31 88° W 10:06:35 51° S
CZ-2D R/B 2.3 10:00:36 10° NNE 10:05:54 63° ESE 10:08:12 33° S
MSX 3.8 10:02:49 10° NNE 10:08:35 81° ESE 10:11:13 34° S
Cosmos 1943 3.2 10:03:06 10° NNW 10:08:45 83° ENE 10:12:59 18° SSE
Cosmos 1544 Rocket 3.7 10:05:24 10° NNW 10:09:45 57° W 10:10:31 49° SW
H-2A R/B 3.2 10:06:33 10° NNE 10:10:33 89° E 10:11:22 56° SSW
CENTAUR R/B 4.3 10:07:23 10° W 10:12:19 26° NNW 10:18:09 10° NNE
Cosmos 1821 Rocket 3.9 10:09:42 33° S 10:12:41 87° E 10:18:51 10° N
FENGYUN 3A 4.4 10:07:35 10° NNE 10:12:46 47° E 10:15:51 23° SSE
Cosmos 1867 3.6 10:10:54 39° SSW 10:12:56 73° ESE 10:18:25 10° NE
Cosmos 2218 Rocket 4.3 10:15:13 32° SW 10:17:46 51° WNW 10:23:47 10° N
ALOS 3.7 10:18:55 10° NNE 10:23:03 32° E 10:26:09 15° SSE
USA 238 DEB 3.4 10:20:07 33° SSW 10:23:09 87° SE 10:29:49 10° NE
USA 238 3.4 10:20:10 33° SSW 10:23:11 87° SE 10:29:52 10° NE
ADEOS II 2.4 10:20:03 10° NNE 10:25:16 62° ESE 10:28:15 25° S
NPP 3.8 10:20:56 10° N 10:26:15 63° WNW 10:28:41 32° SW
ATLAS 5 CENTAUR R/B 3.6 10:38:58 10° ESE 10:39:10 10° ESE 10:39:22 10° ESE
Cosmos 921 Rocket 3.0 10:35:48 10° NNW 10:40:01 75° ENE 10:43:33 14° SSE
Resurs 1-4 Rocket 2.3 10:36:20 10° N 10:41:32 59° WNW 10:44:17 27° SW
Cosmos 1606 Rocket 3.5 10:40:47 10° N 10:45:15 88° E 10:48:20 19° S
Iridium 2 3.6 10:45:17 33° SE 10:45:52 40° E 10:48:13 10° NNE
Cosmos 1844 3.7 10:43:33 26° SSW 10:46:56 85° WNW 10:52:45 10° NNE
Meteor 1-28 Rocket 3.3 10:44:34 17° SSE 10:47:07 66° ENE 10:50:38 10° N
Cosmos 2058 4.0 10:46:01 13° SSE 10:49:13 39° E 10:53:01 10° NNE
Cosmos 1934 Rocket 4.2 10:44:12 15° S 10:49:28 72° E 10:55:50 10° NNE
Cosmos 2123 Rocket 4.2 10:45:08 10° N 10:51:19 70° E 10:57:29 10° SSE
SL-16 R/B 2.7 10:46:22 10° SSE 10:52:37 80° ENE 10:58:52 10° NNW
Cosmos 2263 Rocket 4.3 10:53:00 10° W 10:56:08 15° NW 10:59:15 10° NNW
Cosmos 1726 Rocket 3.5 10:55:49 10° N 11:00:16 86° W 11:04:06 13° S
Cosmos 1238 Rocket 4.1 11:00:16 10° NNE 11:03:13 29° ENE 11:05:54 10° SE
Cosmos 1437 Rocket 4.1 11:04:20 20° WSW 11:05:41 25° WNW 11:08:52 10° NNW
USA 267 3.3 11:02:20 10° NE 11:08:55 77° SE 11:14:06 17° SW
Delta 2 Rocket 4.1 11:08:38 24° SW 11:09:46 28° SSW 11:13:25 10° SE
SAR-Lupe-1 4.2 11:07:33 10° NNE 11:11:08 71° ESE 11:13:50 16° S
Cosmos 1844 Rocket 3.3 11:10:44 18° SW 11:14:31 44° WNW 11:19:51 10° NNE
SEDSat Delta rocket 4.2 11:19:21 18° SSW 11:20:33 21° S 11:23:36 10° SE
Cosmos 724 4.3 11:15:57 10° NNW 11:21:47 88° ENE 11:27:39 10° SSE
IDEFIX/ARIANE 42P 4.4 11:23:15 10° NNW 11:26:41 18° WNW 11:30:06 10° WSW
Orbus 7S? 4.2 11:23:35 10° WNW 11:26:47 36° SW 11:32:44 10° SSE
ASTEX 1 3.9 11:23:12 15° SSW 11:26:54 40° W 11:31:29 10° NNW
Cosmos 1544 2.1 11:26:12 16° S 11:28:08 84° E 11:30:45 10° N
CZ-2C R/B 3.1 11:27:55 10° NNE 11:32:19 47° E 11:36:45 10° S
Envisat 3.1 11:30:01 10° NNE 11:35:06 83° ESE 11:40:10 10° SSW
Lacrosse 5 4.3 11:33:43 10° SE 11:36:04 13° ESE 11:38:27 10° E
Cosmos 1048 Rocket 4.5 11:33:04 10° NW 11:37:58 41° WSW 11:42:53 10° S
Cosmos 1892 Rocket 4.5 11:36:25 14° SW 11:39:41 33° WNW 11:43:42 10° NNW
Cosmos 2278 Rocket 4.1 11:35:24 10° SSE 11:39:56 25° ESE 11:44:29 10° NE
Cosmos 2058 Rocket 3.2 11:37:11 10° NNW 11:41:31 58° W 11:45:48 10° S
USA 234 4.5 11:36:41 10° ESE 11:42:52 47° NNE 11:49:04 10° NW
UNK 3.9 11:38:32 10° S 11:43:01 53° W 11:47:30 10° NNW
Alouette 2 Rocket 4.3 11:39:26 12° SW 11:43:20 36° WNW 11:46:50 10° N
CZ-2C R/B 4.2 11:40:57 12° WSW 11:43:35 16° W 11:46:49 10° NW
Cosmos 1758 Rocket 4.2 11:40:08 10° S 11:44:27 57° E 11:48:47 10° NNE
Timation 2 Rocket 4.3 11:38:29 12° SW 11:44:39 61° WNW 11:50:59 10° NNE
YAOGAN 6 3.0 11:42:14 10° NNE 11:45:21 50° E 11:48:26 10° S
CZ-2D R/B 3.9 11:41:53 10° NNW 11:45:21 18° WNW 11:48:47 10° WSW
Cosmos 1125 Rocket 4.1 11:41:49 12° SW 11:46:26 43° WNW 11:51:30 10° N
Cosmos 1812 3.5 11:47:18 10° NNW 11:50:24 28° W 11:53:29 10° SSW
SWAS 4.4 11:51:25 10° SSW 11:55:35 73° WNW 11:59:48 10° NNE
BlueWalker 3 3.9 11:52:43 10° NW 11:56:06 31° NNE 11:59:29 10° E
